Simultaneous Nadir Overpasses (SNOs) Predictions

Prediction of SNOs between AQUA and METOP-A Satellite Orbit:

Table of predicted SNOs for the next 14.0 days since TLE Epoch: 5/15/2021
Index Date (AQUA) Time (AQUA) Lat,Lon (AQUA) SZA (AQUA ) Date (METOP-A) Time (METOP-A) Lat,Lon (METOP-A) SZA (METOP-A ) Distance(km) Time Diff (sec)
1 05/16/2021 17:35:29 77.35, -99.74 58.48 05/16/2021 17:34:51 77.37, -99.69 58.51 2.82 38
2 05/16/2021 18:24:56 -77.38, 67.76 121.49 05/16/2021 18:25:32 -77.40, 67.78 121.48 2.12 36
3 05/19/2021 13:09:43 77.35, -33.31 57.87 05/19/2021 13:09:12 77.38, -33.32 57.91 3.01 31
4 05/19/2021 13:59:11 -77.43, 134.02 122.05 05/19/2021 13:59:53 -77.41, 134.16 122.08 3.59 42
5 05/22/2021 08:43:58 77.36, 33.09 57.32 05/22/2021 08:43:34 77.38, 33.04 57.35 2.90 24
6 05/22/2021 09:33:26 -77.43,-159.56 122.61 05/22/2021 09:34:15 -77.42,-159.47 122.64 2.29 49
7 05/25/2021 04:18:13 77.38, 99.47 56.81 05/25/2021 04:17:56 77.39, 99.39 56.84 2.30 17
8 05/25/2021 05:07:41 -77.44, -93.16 123.12 05/25/2021 05:08:37 -77.43, -93.11 123.15 2.08 56
9 05/27/2021 23:02:54 -77.10, -0.64 123.99 05/27/2021 23:01:46 -77.01, -3.14 123.88 62.99 68
10 05/27/2021 23:52:27 77.40, 165.82 56.37 05/27/2021 23:52:17 77.39, 165.74 56.37 2.23 10



Historial Predications of SNOs between AQUA and METOP-A
